Retour au catalogue

STARLINK-36916

ActifCommunicationsSSO
NORAD 68022·PAYLOAD·🇺🇸 United States

Lancé Mar 1, 2026 depuis Vandenberg Space Force Base

Loading…

Prochains Passages (prochaines 24 heures)

TLE

FraisSource: CelesTrak SupGP

Époque: Sep 15, 2026, 03:51 UTC

1 68022C 26040H   26258.16090278  .00069459  00000+0  21566-2 0  2588
2 68022  97.2858 205.5316 0001773  95.8965  22.1646 15.33397573    19

Suivez STARLINK-36916 en temps réel avec AllMySat

Download on the App Store